Weather History for Pascagoula, MS

Change the Weather History Date:

Saturday, February 8, 2014

  Actual Average Record
Temperature  
Mean Temperature 52 °F -  
Max Temperature 64 °F 58 °F 75 °F (1999)
Min Temperature 41 °F 37 °F 20 °F (1988)
Degree Days  
Heating Degree Days 12    
Growing Degree Days 2 (Base 50)    
Moisture  
Dew Point 42 °F    
Average Humidity 85    
Maximum Humidity 100    
Minimum Humidity 47    
Precipitation  
Precipitation 0.00 in - - ()
Sea Level Pressure  
Sea Level Pressure 30.19 in    
Wind  
Wind Speed 3 mph (NNE)    
Max Wind Speed 8 mph    
Max Gust Speed -    
Visibility 6 miles    
Events Fog    
Averages and records for this station are not official NWS values.
T = Trace of Precipitation, MM = Missing Value Source: NWS Daily Summary

Daily Weather History Graph

Daily Weather History Graph

Search for Another Location

Airport:

Trip Planner

Search our weather history database for the weather conditions in past years. The results will help you decide how hot, cold, wet, or windy it might be!

Date:

Astronomy

Feb. 08, 2014 Rise Set
Actual Time 6:40 AM CST 5:36 PM CST
Civil Twilight 6:15 AM CST 6:01 PM CST
Nautical Twilight 5:47 AM CST 6:30 PM CST
Astronomical Twilight 5:18 AM CST 6:58 PM CST
Moon 12:36 PM CST (2/8) 1:47 AM CST (2/8)
Length of Visible Light 11h 46m
Length of Day
10h 56m
Waxing Gibbous, 69% of the Moon is Illuminated
Feb 8
Waxing Gibbous
Feb 14
Full
Feb 22
Last Quarter
Mar 1
New
Mar 8
First Quarter

Hourly Weather History & Observations

Time (CST) Temp. Windchill Dew Point Humidity Pressure Visibility Wind Dir Wind Speed Gust Speed Precip Events Conditions
12:53 AM 44.1 °F 42.5 °F 39.0 °F 82% 30.22 in 10.0 mi North 3.5 mph - 0.00 in   Overcast
1:53 AM 44.1 °F 41.5 °F 39.0 °F 82% 30.23 in 10.0 mi North 4.6 mph - N/A   Overcast
2:53 AM 43.0 °F 39.5 °F 39.0 °F 86% 30.20 in 10.0 mi NNE 5.8 mph - 0.00 in   Overcast
3:53 AM 43.0 °F 39.5 °F 39.0 °F 86% 30.23 in 10.0 mi NNW 5.8 mph - 0.00 in   Overcast
4:53 AM 42.1 °F 37.1 °F 37.9 °F 85% 30.23 in 10.0 mi North 8.1 mph - 0.00 in   Overcast
5:53 AM 41.0 °F 38.0 °F 36.0 °F 82% 30.23 in 10.0 mi NNE 4.6 mph - N/A   Mostly Cloudy
6:53 AM 41.0 °F 39.0 °F 36.0 °F 82% 30.24 in 10.0 mi North 3.5 mph - N/A   Mostly Cloudy
7:53 AM 43.0 °F 38.8 °F 36.0 °F 76% 30.24 in 10.0 mi NE 6.9 mph - N/A   Clear
8:53 AM 48.0 °F - 37.0 °F 66% 30.25 in 10.0 mi ENE 6.9 mph - N/A   Clear
9:53 AM 54.0 °F - 39.9 °F 59% 30.25 in 10.0 mi Calm Calm - N/A   Clear
10:53 AM 59.0 °F - 42.1 °F 53% 30.23 in 10.0 mi North 3.5 mph - N/A   Clear
11:53 AM 60.1 °F - 43.0 °F 53% 30.21 in 10.0 mi South 3.5 mph - N/A   Clear
12:53 PM 64.9 °F - 44.1 °F 47% 30.18 in 10.0 mi Variable 3.5 mph - N/A   Clear
1:53 PM 63.0 °F - 46.9 °F 56% 30.15 in 10.0 mi SSW 8.1 mph - N/A   Clear
2:53 PM 62.1 °F - 46.9 °F 58% 30.14 in 10.0 mi SW 6.9 mph - N/A   Partly Cloudy
3:53 PM 60.1 °F - 46.9 °F 62% 30.13 in 10.0 mi South 5.8 mph - N/A   Clear
4:53 PM 59.0 °F - 46.9 °F 64% 30.13 in 10.0 mi South 4.6 mph - N/A   Clear
5:53 PM 52.0 °F - 46.9 °F 83% 30.15 in 10.0 mi South 5.8 mph - N/A   Clear
6:53 PM 48.0 °F - 46.0 °F 93% 30.16 in 9.0 mi Calm Calm - N/A   Clear
7:53 PM 44.1 °F - 44.1 °F 100% 30.17 in 5.0 mi Calm Calm - N/A   Clear
8:32 PM 44.1 °F - 43.0 °F 96% 30.18 in 2.5 mi Calm Calm - N/A   Clear
8:41 PM 44.1 °F - 43.0 °F 96% 30.18 in 5.0 mi Calm Calm - N/A   Clear
8:53 PM 43.0 °F - 43.0 °F 100% 30.18 in 2.0 mi Calm Calm - N/A   Partly Cloudy
9:03 PM 43.0 °F - 43.0 °F 100% 30.18 in 3.0 mi Calm Calm - N/A   Partly Cloudy
9:22 PM 43.0 °F - 43.0 °F 100% 30.18 in 2.5 mi Calm Calm - N/A   Clear
9:32 PM 43.0 °F - 43.0 °F 100% 30.17 in 3.0 mi Calm Calm - N/A   Clear
9:37 PM 42.1 °F - 42.1 °F 100% 30.17 in 1.8 mi Calm Calm - N/A   Clear
9:45 PM 43.0 °F - 42.1 °F 97% 30.17 in 0.8 mi Calm Calm - N/A   Partly Cloudy
9:53 PM 43.0 °F - 43.0 °F 100% 30.18 in 2.5 mi Calm Calm - N/A   Scattered Clouds
10:04 PM 42.1 °F - 42.1 °F 100% 30.17 in 4.0 mi Calm Calm - N/A   Partly Cloudy
10:08 PM 42.1 °F - 42.1 °F 100% 30.17 in 1.8 mi Calm Calm - N/A   Partly Cloudy
10:22 PM 41.0 °F - 41.0 °F 100% 30.17 in 1.0 mi Calm Calm - N/A   Scattered Clouds
10:31 PM 41.0 °F - 41.0 °F 100% 30.17 in 0.5 mi Calm Calm - N/A Fog Fog
10:44 PM 41.0 °F - 41.0 °F 100% 30.17 in 1.5 mi Calm Calm - N/A   Mostly Cloudy
10:51 PM 42.8 °F - 41.0 °F 93% 30.17 in 3.0 mi Calm Calm - N/A   Mostly Cloudy
10:53 PM 41.0 °F - 41.0 °F 100% 30.18 in 3.0 mi Calm Calm - N/A   Mostly Cloudy
11:10 PM 41.0 °F - 41.0 °F 100% 30.17 in 1.8 mi Calm Calm - N/A   Overcast
11:18 PM 41.0 °F - 41.0 °F 100% 30.17 in 3.0 mi Calm Calm - N/A   Overcast
11:53 PM 42.1 °F - 41.0 °F 96% 30.17 in 4.0 mi Calm Calm - N/A   Mostly Cloudy